SCP
0 0 0 0 0 0 0 0 0 0 0 0 0 0 0 0 0 0 0 0 0 0 0 0 1 1 1 0 0 0 0 0 0 0 0 0 0 0 0 0 0 0 0 0 0 0 0 0 0
0 0 0 0 0 -0 0 0 0 0 0 0 0 0 0 0 0 0 0 0 0 0 0 0 0 0 0 0 0 0 0 0 0 0 0 0 0 0 0 0 0 0 0 0 0 0 0 0 0
0 0 0 0 0 0 0 0 0 0 0 0 0 0 0 0 0 0 0 0 0 0 0 0 0 0 0 0 0 0 0 0 0 0 0 0 0 0 0 0 0 0 0 0 0 0 0 0 0
0 0 0 0 0 0 0 0 0 0 0 0 0 0 0 0 0 0 0 0 0 0 0 0 0 0 0 0 0 0 0 0 0 0 0 0 0 0 0 0 0 0 0 0 0 0 0 0 0
0 0 0 0 0 0 0 0 0 0 0 0 0 0 0 0 1 0 0 0 0 0 0 0 0 0 0 0 0 0 0 0 0 0 0 0 0 0 0 0 0 0 0 0 0 0 0 0 0
0 0 0 0 0 0 0 0 0 0 0 0 0 0 0 0 1 0 0 0 0 0 0 0 0 0 0 0 0 0 0 0 0 0 0 0 0 0 0 0 0 0 0 0 0 0 0 0 0
0 0 0 0 0 0 0 0 0 0 0 0 0 0 0 0 1 1 0 0 0 0 0 0 0 0 0 0 0 0 0 0 0 0 0 0 0 0 0 0 0 0 0 0 0 0 0 0 0
0 0 0 0 0 0 0 0 0 0 0 0 0 0 0 0 1 1 1 0 0 0 0 0 0 0 0 0 0 0 0 0 0 0 0 0 0 0 0 0 0 0 0 0 0 0 0 0 0
0 0 0 0 -0 0 0 0 0 0 0 0 0 0 0 0 1 1 1 1 0 0 0 0 0 0 0 0 0 0 0 0 0 0 0 0 0 0 0 0 0 0 0 0 0 0 0 0 0
0 0 0 0 -0 0 0 0 0 0 0 0 0 0 0 0 1 1 1 1 1 0 0 0 0 0 0 0 0 0 0 0 0 0 0 0 -0 -0 0 0 0 0 0 -0 0 0 0 0 0
0 0 0 0 0 0 0 0 0 0 0 0 1 1 0 0 1 1 1 1 1 1 0 0 0 0 0 0 0 0 0 -0 -0 -0 -0 -0 -0 -0 -0 0 0 0 -0 0 0 0 0 0 0
0 0 0 0 0 0 0 0 0 0 0 1 1 1 1 1 1 1 1 1 1 1 1 1 0 0 0 0 0 0 -0 -0 -0 -0 -0 -0 -0 -0 0 0 0 0 0 0 0 0 0 0 0
0 0 0 0 0 0 0 0 0 0 0 1 1 1 1 1 1 1 2 2 2 1 1 1 1 1 0 0 0 0 -0 -0 -0 -0 -0 -0 0 0 0 0 0 0 0 0 0 0 0 0 0
0 0 0 0 0 0 0 0 0 0 0 1 1 1 1 1 1 1 2 2 2 2 2 2 1 1 1 0 0 0 0 -0 -0 -0 0 0 0 0 0 0 0 0 0 0 0 0 0 0 0
0 0 0 0 0 0 0 0 0 0 0 1 1 1 1 1 1 1 2 3 3 3 2 2 2 2 1 1 0 0 0 0 0 0 0 0 0 0 0 0 0 0 0 0 0 0 0 0 0
0 0 0 0 0 0 0 0 0 0 0 1 1 1 1 0 1 1 3 4 4 3 3 3 3 2 2 1 1 1 1 1 0 0 0 0 0 0 0 0 0 0 0 0 0 0 0 0 0
0 0 0 0 0 0 0 0 0 0 0 0 1 1 1 0 1 1 3 4 4 4 4 4 4 3 2 2 2 1 1 1 1 1 0 0 0 0 0 0 0 0 0 0 0 0 0 0 0
0 0 0 0 0 0 0 0 0 0 0 0 0 0 0 0 1 2 3 4 5 5 4 5 4 4 3 3 3 2 2 1 1 1 0 0 0 0 0 0 0 0 0 0 0 0 0 0 0
0 0 0 0 0 0 0 0 0 0 0 0 0 0 0 0 1 2 4 5 6 6 5 5 5 4 4 4 4 3 2 1 1 0 0 0 0 0 0 0 0 0 0 0 0 0 0 0 0
0 0 0 0 0 0 0 0 0 0 0 0 0 0 0 0 1 2 4 6 7 7 7 6 6 5 5 5 4 3 2 1 0 0 0 0 0 0 0 0 0 0 0 0 0 0 0 0 0
0 0 0 0 0 0 0 0 0 0 0 0 0 0 0 1 1 3 5 7 8 8 8 7 7 6 6 5 3 2 1 0 0 0 0 0 0 0 0 0 0 0 0 0 0 0 0 0 0
0 0 0 0 0 0 0 0 0 0 0 0 0 0 0 1 2 4 6 7 8 9 8 8 7 6 5 4 2 1 0 0 0 0 0 0 0 0 0 0 0 0 0 0 0 0 0 0 0
0 0 0 0 0 0 0 0 0 0 0 0 0 0 1 1 3 5 7 8 9 9 8 7 5 4 3 2 1 0 0 0 0 0 0 0 0 0 0 0 0 0 0 0 0 0 0 0 0
0 0 0 0 0 0 0 0 0 0 0 0 0 1 1 2 4 6 7 8 8 7 6 5 3 2 1 1 0 0 0 0 0 0 0 0 0 0 0 0 0 0 0 0 0 0 0 0 0
0 0 0 0 0 0 0 0 0 0 0 0 1 1 2 3 5 6 7 7 6 5 4 3 2 1 1 0 0 0 0 0 0 0 0 0 0 0 0 0 0 0 0 0 0 0 0 0 0
0 0 0 0 0 0 0 0 0 0 0 1 1 2 3 3 4 4 4 4 3 3 2 1 1 0 0 0 0 0 0 0 0 0 0 0 0 0 0 0 0 0 0 0 0 0 0 0 0
0 0 0 0 0 0 0 0 0 0 1 1 2 2 2 2 2 2 2 2 1 1 1 0 0 0 0 0 0 0 0 0 0 0 0 0 0 0 0 0 0 0 0 0 0 0 0 0 0
0 0 0 0 0 0 0 0 0 0 1 1 1 1 1 1 1 1 1 0 0 0 0 0 0 0 0 0 0 0 0 0 0 0 0 0 0 0 0 0 0 0 0 0 0 0 0 0 0
0 0 0 0 0 0 0 0 0 0 1 1 1 1 1 0 0 0 0 0 0 0 0 0 0 0 0 0 0 0 0 0 0 0 0 0 0 0 0 0 0 0 0 0 0 0 0 0 0
0 0 0 0 0 0 0 0 0 0 0 1 1 0 0 0 0 0 0 0 0 0 0 0 0 0 0 0 0 0 0 0 0 0 0 0 0 0 0 0 0 0 0 0 0 0 0 0 0
Wind_Speed
5 4 1 3 6 5 3 6 3 2 1 3 8 11 9 4 5 4 3 14 15 14 10 13 16 16 16 15 15 15 15 15 14 14 13 13 12 11 11 11 11 11 11 10 9 8 7 6 5
3 2 3 5 5 2 6 4 1 1 5 9 9 9 8 6 8 11 7 14 15 14 9 12 16 16 16 15 15 15 16 16 15 14 14 13 12 10 10 10 11 10 10 9 8 7 5 4 3
4 1 3 4 3 5 5 2 1 2 5 7 6 6 7 9 12 9 9 16 14 11 9 12 18 17 16 16 16 15 16 16 15 14 14 12 11 10 9 10 10 10 9 8 7 6 4 2 1
2 4 5 3 7 7 5 6 4 1 2 3 8 7 5 7 9 12 17 17 15 12 10 12 17 17 16 16 16 16 16 15 15 14 13 11 10 9 9 10 10 9 8 7 6 5 3 1 1
3 4 2 3 7 6 7 10 8 4 2 3 10 7 5 5 17 21 19 17 15 11 8 10 16 16 16 16 16 16 15 14 14 13 12 10 9 9 9 9 9 8 8 7 6 5 3 3 3
4 4 2 4 8 7 7 9 6 5 6 6 10 8 4 12 20 20 18 15 14 12 9 10 16 17 16 16 15 14 14 13 13 12 11 10 9 9 9 9 9 8 8 7 6 5 5 4 4
3 3 4 5 7 8 8 4 7 8 7 5 8 8 6 11 16 18 16 15 13 12 10 8 9 12 16 16 15 14 13 12 12 11 10 10 9 9 10 9 9 9 8 8 7 6 6 5 5
5 2 3 4 5 7 4 1 2 7 7 6 6 10 9 12 15 16 16 13 12 10 10 9 7 7 7 9 15 15 14 13 12 12 12 11 11 10 11 9 9 9 9 8 7 7 6 6 6
2 1 5 5 4 5 3 0 2 1 6 4 3 7 13 17 16 17 15 11 11 10 8 9 8 7 7 7 11 13 14 13 12 10 12 10 5 5 6 8 10 10 9 9 8 7 7 7 7
5 5 8 6 4 6 7 3 6 3 5 5 6 9 17 16 16 18 18 16 14 14 11 9 10 10 8 8 7 5 6 6 6 5 6 5 4 4 6 8 11 11 10 8 7 7 6 6 3
6 8 7 9 10 9 9 7 5 9 5 10 15 16 17 15 16 17 18 18 17 16 15 13 12 11 10 6 6 4 3 4 5 6 7 5 4 4 4 3 5 5 6 3 3 3 2 3 3
5 8 9 11 12 9 9 5 4 8 12 16 22 22 18 17 19 20 20 18 17 17 17 15 14 12 11 8 7 6 5 5 5 7 7 5 4 4 4 3 4 3 2 2 2 2 3 3 4
7 11 15 15 13 11 9 7 5 8 10 16 19 21 21 20 17 17 18 19 18 18 18 18 16 15 13 10 8 8 7 7 7 7 7 7 6 6 5 4 4 4 3 3 3 2 2 2 1
8 8 10 10 11 9 8 8 1 5 15 18 18 19 20 20 18 15 16 18 19 19 18 17 18 16 14 11 9 8 8 7 7 7 8 9 6 6 5 4 3 3 4 4 3 3 3 2 2
7 8 11 10 8 8 4 8 6 6 16 19 19 19 19 18 17 17 20 20 20 18 17 16 17 16 16 13 12 9 8 8 7 6 7 8 6 6 5 4 3 2 3 4 3 4 4 4 4
5 4 6 10 6 8 1 8 12 6 15 17 18 17 17 17 17 17 17 17 16 14 15 16 16 16 15 12 10 8 8 8 6 5 5 7 7 7 6 5 3 3 3 3 4 3 4 4 4
4 3 5 10 8 6 3 8 12 6 14 17 18 17 17 15 13 14 16 18 18 16 17 18 16 18 16 12 8 8 7 7 5 5 5 6 7 7 6 4 3 4 4 3 4 4 3 3 4
5 4 6 9 9 6 7 12 15 11 9 15 19 19 17 18 20 17 17 18 18 16 17 18 16 16 13 9 7 6 6 5 4 5 5 6 6 7 6 5 5 5 5 4 4 4 4 3 3
5 6 9 13 12 7 10 14 17 15 10 10 14 18 19 21 19 14 16 17 16 16 16 16 15 15 12 9 8 7 6 5 5 5 6 7 8 8 7 6 5 5 4 4 3 3 4 4 3
7 9 13 14 13 7 7 10 11 11 11 11 13 14 16 15 13 14 16 16 18 19 17 14 12 11 9 6 5 5 6 5 5 5 7 7 8 8 8 7 5 5 5 5 5 3 2 3 4
10 11 15 14 15 7 3 8 9 8 4 4 8 11 12 15 18 18 18 18 16 14 12 9 7 6 6 8 8 7 6 5 4 5 5 6 7 8 8 8 7 6 5 5 5 4 4 2 3
13 15 14 13 9 7 1 4 10 7 8 7 7 6 8 8 13 16 17 15 13 9 8 8 8 8 8 8 9 9 5 4 4 4 5 6 7 7 7 7 7 6 5 5 4 4 3 3 2
15 16 10 7 4 2 4 1 10 6 7 9 10 9 8 5 10 13 12 12 10 10 9 9 10 10 10 9 8 8 7 6 6 6 7 6 6 6 7 7 6 6 4 4 4 3 3 2 2
13 6 2 4 5 2 4 1 9 6 8 10 8 5 2 5 10 11 11 12 12 11 10 10 11 10 10 11 9 10 11 11 9 7 6 5 4 5 6 7 6 5 4 3 3 3 3 1 1
4 5 3 4 5 6 4 2 9 9 8 6 3 5 9 11 12 13 13 13 12 12 10 10 11 10 10 11 9 9 10 10 10 8 6 6 5 4 5 5 4 4 3 3 2 2 1 1 1
6 11 10 7 5 6 3 4 5 6 6 10 12 13 16 15 14 14 14 13 12 12 11 10 11 10 10 11 10 9 9 6 6 7 6 6 5 4 5 5 4 3 3 2 2 1 1 1 2
5 6 10 9 5 2 5 5 4 9 12 15 16 17 17 16 16 16 15 15 13 12 11 10 10 11 10 10 10 10 9 8 8 8 7 6 5 5 5 4 3 2 2 2 1 2 3 3 3
8 9 7 7 7 4 4 3 4 7 6 12 15 16 15 15 15 14 13 12 12 12 10 10 10 10 10 9 8 9 8 8 9 8 8 7 5 4 4 3 2 1 1 2 1 2 3 3 3
3 2 5 5 6 8 3 1 2 1 5 12 14 14 13 13 12 11 10 10 11 11 10 11 9 9 9 8 8 8 7 7 7 7 6 6 5 4 3 2 1 1 3 4 4 4 5 5 4
5 4 4 3 3 4 6 1 5 3 6 11 13 13 11 11 9 9 8 8 9 10 9 11 10 8 7 7 7 7 7 7 6 6 5 5 5 4 4 4 6 7 8 7 6 6 5 5 5
Wind_Direction
296 277 140 60 48 42 266 254 233 240 104 112 114 114 116 106 152 168 136 144 138 145 149 142 136 135 135 134 132 131 129 126 124 121 118 116 114 112 111 113 114 116 117 116 114 112 107 100 88
286 280 63 57 79 356 279 261 180 161 124 121 107 108 98 76 92 111 119 142 143 144 145 142 137 136 136 135 134 133 133 131 129 127 126 124 122 119 118 119 120 121 122 122 120 116 111 99 73
281 284 81 74 148 191 251 298 182 124 141 128 112 84 88 115 124 133 141 143 143 142 142 145 139 137 137 136 136 136 136 135 133 133 132 131 129 128 127 126 127 127 127 127 127 124 119 105 39
27 37 52 82 244 228 232 278 288 146 84 99 105 78 75 121 132 139 142 148 145 144 145 146 141 139 138 138 138 138 138 138 138 137 137 135 135 135 134 133 134 134 133 133 134 136 139 152 303
68 73 49 294 264 253 233 246 234 178 133 101 96 88 55 71 120 135 148 152 146 143 143 146 143 142 141 141 141 142 142 142 141 142 141 140 139 139 138 139 139 141 142 145 151 161 181 224 269
52 76 106 260 269 274 268 241 197 145 139 120 104 104 97 127 134 147 151 150 145 144 142 146 147 147 147 146 145 145 146 146 146 146 145 145 144 142 141 141 143 147 153 162 174 188 211 239 269
129 126 207 236 270 284 274 230 161 162 152 148 128 105 127 148 149 151 148 142 141 144 144 145 151 151 152 150 150 149 150 151 152 151 151 151 151 151 151 151 155 161 169 180 192 208 231 252 274
159 120 258 251 257 264 265 214 183 157 150 136 125 133 158 171 152 145 139 137 140 145 150 151 148 148 149 153 156 157 158 158 159 159 159 161 163 164 165 164 169 176 185 194 204 221 243 260 274
133 104 244 242 245 266 321 110 239 206 128 131 136 146 155 156 144 137 136 137 145 153 160 156 156 154 153 157 165 164 165 167 166 167 168 167 169 171 173 179 184 190 198 205 213 229 251 269 282
145 193 232 226 248 292 307 256 196 127 106 98 86 111 142 151 150 150 153 157 162 165 171 167 165 165 164 170 162 166 171 172 170 171 174 173 177 188 188 195 196 200 208 217 225 237 258 275 289
184 214 243 265 271 277 283 264 184 137 154 158 146 147 154 160 162 163 164 167 169 169 172 173 173 172 173 171 166 175 176 175 181 184 186 183 184 194 194 184 200 209 215 226 263 265 258 272 287
246 261 265 271 275 270 262 244 176 176 189 169 158 155 161 173 174 171 169 170 170 171 176 175 176 176 180 174 178 181 184 186 192 195 191 185 189 192 185 185 193 196 191 200 243 238 237 249 265
252 263 268 269 273 263 261 248 204 207 180 164 159 160 172 181 181 175 170 170 171 176 179 179 179 180 181 176 185 185 191 192 197 196 196 194 193 194 191 195 194 200 191 190 204 204 193 186 195
246 264 280 290 292 280 269 277 258 205 162 165 169 177 183 182 181 174 170 172 176 180 182 180 180 183 180 181 188 187 192 195 197 197 195 192 188 187 186 186 185 188 178 169 164 148 127 100 77
250 275 295 292 291 283 295 303 280 173 162 173 183 189 192 188 180 179 178 175 178 179 180 178 180 183 184 186 191 190 190 191 195 191 183 176 169 165 154 149 156 162 145 131 113 99 82 66 47
343 330 304 295 292 286 293 271 274 171 167 185 194 198 199 201 192 185 178 173 173 173 173 175 179 182 187 185 186 184 183 183 185 173 164 159 150 142 133 132 132 125 111 105 99 84 73 55 39
341 295 287 297 288 279 257 259 269 219 179 191 199 203 204 206 205 191 181 175 173 175 172 176 176 178 182 177 171 168 165 168 164 152 146 138 129 125 120 112 99 91 80 74 79 62 70 52 26
249 269 281 276 286 306 279 264 270 266 211 198 197 201 206 207 209 193 184 180 175 176 177 179 177 175 172 161 142 141 138 139 134 130 124 115 107 106 100 89 76 76 75 62 64 67 54 55 27
222 261 274 276 281 290 270 264 267 268 252 215 198 199 206 213 212 191 182 180 175 178 181 181 177 178 169 160 151 147 141 123 104 95 96 97 96 95 88 83 69 67 72 68 71 71 56 36 24
246 261 271 283 280 257 262 271 268 262 244 220 196 195 202 207 202 190 183 181 182 183 184 181 181 175 163 147 127 108 104 90 74 73 72 75 83 86 90 87 80 69 75 60 50 58 65 30 32
251 238 250 257 280 303 304 315 317 306 291 233 200 196 198 192 187 186 184 186 182 181 178 169 154 139 121 115 105 99 88 82 77 72 64 60 73 78 84 86 83 74 78 77 65 62 79 57 26
253 243 238 246 255 274 284 285 295 304 326 314 288 263 235 200 182 180 177 176 172 162 137 126 120 111 108 112 122 131 129 123 106 104 96 80 77 82 86 86 83 81 82 85 79 75 79 87 50
237 250 242 238 216 320 348 1 286 313 302 285 282 274 260 208 173 168 163 151 131 119 116 114 110 107 110 110 123 126 115 113 114 110 105 96 89 93 96 91 88 89 87 91 88 85 82 100 122
232 235 11 53 70 352 275 299 288 275 258 273 282 290 283 129 128 125 117 112 105 100 99 102 104 102 107 115 124 129 132 131 127 120 117 106 95 87 91 93 92 96 99 101 104 95 90 109 145
199 124 39 351 5 262 273 254 260 282 290 278 308 43 72 90 99 102 101 99 96 91 88 91 97 97 101 107 113 121 126 128 130 131 127 123 111 102 99 100 100 102 106 107 106 87 60 264 248
214 149 160 188 215 267 315 222 262 328 5 56 67 73 76 76 78 79 76 76 76 74 72 78 87 89 90 95 96 98 100 102 108 111 114 118 119 118 117 111 111 115 122 125 130 148 262 259 254
180 185 174 152 181 220 278 278 347 12 42 66 77 79 78 75 73 70 67 66 66 66 66 72 83 84 83 88 92 92 92 92 95 96 94 100 108 115 115 121 127 139 159 190 205 247 268 275 271
179 163 110 128 159 218 277 344 339 342 47 82 91 92 90 85 82 78 76 79 79 79 75 72 78 86 86 86 90 97 95 97 101 102 101 104 106 109 118 122 140 181 245 270 280 292 314 333 332
5 92 117 133 155 159 177 320 334 10 92 104 104 102 102 101 99 98 97 98 101 100 100 94 85 86 89 88 90 92 92 97 100 102 107 110 107 106 103 102 105 29 19 25 36 35 31 28 9
70 58 96 135 236 155 139 124 9 51 88 110 112 109 106 102 98 98 99 99 102 106 108 106 104 101 99 98 93 91 90 92 93 94 96 95 87 72 64 63 65 70 69 62 58 42 28 13 350